Temp
16 16 17 17 17 17 17 18 18 19 19 19 19 20 20 21 21 22 24 25 25 25 25 24 24 25 25 25 26 21 16 18 22 21 23 23 25 28 27 26 25 24 21 20 19
16 16 16 17 17 17 18 18 18 19 19 19 20 20 20 20 21 22 26 25 25 25 25 25 25 26 26 27 26 19 18 19 26 24 22 22 24 28 27 25 23 21 20 20 19
16 16 16 17 17 17 18 18 19 19 20 20 20 20 20 20 21 25 26 26 25 24 25 25 25 26 28 29 27 21 21 24 26 23 24 21 24 27 26 24 23 22 21 20 20
16 16 17 17 17 18 18 19 19 20 20 20 20 20 20 20 22 25 26 26 25 24 25 25 26 27 27 27 28 24 24 20 22 24 23 22 25 25 26 26 24 23 22 21 20
16 16 17 17 18 18 19 19 20 20 20 20 20 20 20 19 23 25 25 25 24 24 25 25 26 27 27 30 27 24 25 25 23 24 25 25 24 25 26 26 24 23 23 22 21
16 16 17 17 18 18 19 19 20 20 21 21 21 20 19 19 25 25 25 25 25 25 25 25 26 28 29 30 29 25 23 24 25 26 27 27 23 26 25 26 24 24 24 24 22
16 16 17 17 18 18 19 20 20 21 21 21 20 19 19 24 25 25 25 25 25 25 25 26 27 28 29 28 30 22 23 22 24 22 23 21 24 21 22 26 25 25 24 24 24
16 17 17 17 18 18 19 20 20 21 21 20 20 19 21 26 25 25 25 25 25 25 26 27 27 29 29 29 29 24 20 19 21 23 23 22 21 19 23 22 23 26 25 25 24
16 16 17 17 18 18 19 20 20 20 20 20 20 19 20 26 26 25 26 26 26 26 27 27 28 28 28 26 24 25 19 20 22 22 21 21 20 21 23 22 22 26 26 25 24
16 16 17 17 18 19 20 20 21 20 19 20 19 18 23 25 26 26 26 26 27 27 27 27 27 23 23 23 22 22 20 21 21 22 22 23 20 22 24 23 25 27 26 25 24
16 16 17 18 18 18 20 20 20 19 18 22 23 23 26 27 26 26 26 26 27 27 23 27 22 21 23 25 27 29 22 21 21 23 22 24 23 22 25 25 26 26 26 25 24
16 16 17 18 19 19 20 20 22 22 22 23 24 24 24 27 27 27 27 27 27 24 25 24 22 25 27 28 28 29 23 21 23 25 22 26 24 23 25 26 26 26 26 25 25
15 16 17 18 19 19 19 21 22 22 22 23 24 25 25 27 28 27 27 27 26 25 25 23 25 28 28 28 28 28 29 27 24 22 26 27 25 24 22 21 21 26 26 26 26
14 15 16 19 19 19 21 22 22 22 19 24 25 26 26 27 27 28 28 27 27 25 26 25 28 29 28 28 28 26 30 30 28 26 24 28 22 22 22 21 23 26 26 26 26
14 15 16 16 18 20 20 21 21 22 19 29 28 29 28 28 29 28 28 28 26 26 27 26 27 27 28 28 29 27 30 29 29 26 25 27 25 22 22 22 23 24 26 26 26
15 15 17 16 18 20 20 21 21 20 22 29 29 28 28 28 28 29 29 28 28 27 27 27 31 29 28 30 29 30 29 27 27 26 23 25 25 21 21 24 24 24 26 26 26
17 16 17 17 19 19 19 20 19 20 29 29 27 28 27 27 27 28 27 26 24 24 23 26 27 28 30 29 29 29 26 21 21 21 22 24 26 24 23 22 26 25 27 26 26
18 18 18 19 19 19 19 19 19 26 28 30 31 28 27 28 27 28 27 25 26 25 24 23 24 28 29 27 26 26 24 20 22 21 22 24 25 22 25 25 25 28 29 28 27
18 18 19 19 19 19 19 18 22 26 27 28 28 28 28 28 28 27 26 26 27 26 24 24 25 29 30 29 27 25 24 25 23 24 23 21 23 26 26 25 25 25 28 28 27
18 18 19 19 19 19 18 18 22 25 26 28 25 26 25 26 27 26 26 28 28 29 27 25 24 27 30 30 28 26 26 24 22 23 23 22 24 23 26 28 25 24 25 26 27
17 17 21 20 19 19 18 21 24 26 28 27 25 25 25 25 26 26 27 29 30 29 28 27 24 26 27 28 26 26 25 25 23 22 21 22 22 25 23 26 23 21 21 23 25
15 17 21 20 19 21 19 22 25 26 27 26 26 25 24 25 25 25 26 28 30 29 28 27 25 23 25 28 29 26 25 24 21 22 22 22 23 25 25 24 21 20 18 22 24
12 16 21 21 18 20 22 24 25 26 26 26 25 25 26 24 22 24 26 28 29 27 24 25 24 23 24 25 27 27 27 26 25 24 24 23 24 26 21 19 19 20 21 21 24
11 18 21 21 22 21 21 22 24 26 26 26 24 24 23 22 23 23 25 27 28 27 27 27 24 24 22 24 27 26 28 27 25 23 23 24 26 26 21 19 18 20 25 26 24
13 18 18 19 19 19 21 21 22 22 24 24 24 24 23 21 22 22 24 25 27 27 25 25 23 23 24 26 27 27 28 28 26 25 25 27 26 26 23 19 19 17 23 25 28
13 14 13 15 18 19 19 20 22 23 23 22 23 24 23 20 22 19 21 21 22 22 21 22 21 23 22 25 26 26 27 28 28 27 26 27 26 25 25 22 21 18 22 19 22
11 11 13 15 17 18 19 20 22 23 22 24 23 22 22 22 22 22 22 22 21 20 20 20 20 20 21 24 25 23 25 27 27 27 23 22 25 24 24 22 22 21 17 19 23
Height
1521 1519 1517 1516 1514 1512 1510 1509 1507 1506 1505 1504 1503 1502 1500 1499 1498 1496 1493 1495 1496 1499 1500 1502 1503 1505 1505 1504 1508 1516 1530 1529 1515 1519 1514 1506 1505 1499 1502 1507 1509 1509 1516 1524 1528
1522 1520 1518 1516 1514 1511 1509 1508 1505 1504 1503 1502 1501 1500 1498 1497 1495 1491 1490 1492 1494 1496 1498 1500 1501 1501 1501 1499 1505 1513 1525 1522 1501 1504 1511 1505 1508 1499 1503 1507 1513 1517 1522 1526 1529
1522 1520 1518 1515 1513 1511 1509 1506 1504 1502 1501 1500 1499 1498 1497 1495 1493 1484 1485 1488 1492 1494 1497 1499 1500 1502 1498 1495 1499 1504 1507 1503 1497 1500 1504 1506 1508 1500 1504 1512 1512 1517 1522 1527 1529
1522 1520 1517 1515 1512 1510 1507 1505 1502 1500 1499 1499 1498 1497 1496 1495 1493 1485 1485 1487 1490 1493 1496 1498 1498 1497 1494 1492 1493 1502 1500 1507 1502 1496 1502 1509 1505 1501 1501 1508 1512 1517 1521 1524 1528
1522 1519 1516 1514 1511 1508 1506 1503 1500 1499 1497 1496 1496 1495 1495 1494 1485 1484 1484 1486 1488 1491 1493 1496 1496 1495 1493 1489 1492 1496 1492 1501 1502 1498 1500 1505 1507 1502 1504 1507 1512 1517 1522 1524 1526
1520 1518 1515 1512 1510 1507 1504 1501 1498 1496 1495 1495 1494 1494 1494 1493 1482 1483 1483 1484 1486 1489 1492 1494 1493 1492 1491 1487 1488 1494 1496 1504 1506 1501 1500 1502 1509 1505 1509 1509 1513 1516 1520 1522 1525
1518 1515 1513 1510 1507 1505 1502 1500 1497 1495 1494 1494 1493 1492 1491 1483 1482 1482 1481 1483 1486 1488 1490 1491 1491 1494 1491 1487 1486 1491 1501 1505 1500 1509 1507 1509 1509 1515 1511 1513 1512 1513 1516 1519 1524
1515 1512 1510 1507 1504 1502 1500 1497 1496 1494 1493 1493 1492 1491 1485 1480 1482 1483 1483 1484 1486 1488 1489 1489 1491 1491 1490 1487 1486 1497 1507 1525 1507 1507 1505 1517 1521 1510 1507 1510 1512 1509 1514 1517 1521
1513 1510 1507 1504 1501 1499 1497 1494 1494 1493 1492 1492 1492 1492 1483 1478 1479 1480 1482 1484 1486 1487 1489 1489 1490 1491 1490 1492 1497 1493 1527 1520 1510 1500 1498 1513 1517 1504 1506 1509 1507 1505 1508 1512 1518
1510 1507 1504 1501 1499 1496 1494 1492 1491 1491 1491 1491 1491 1494 1478 1472 1475 1478 1481 1483 1484 1486 1488 1489 1491 1494 1494 1500 1518 1512 1516 1511 1513 1498 1501 1500 1506 1501 1497 1501 1498 1500 1503 1509 1514
1507 1504 1501 1498 1496 1493 1492 1491 1491 1490 1488 1482 1478 1473 1471 1471 1474 1476 1479 1481 1482 1484 1488 1486 1497 1505 1496 1487 1481 1480 1500 1504 1501 1485 1499 1490 1492 1494 1494 1501 1500 1501 1500 1505 1510
1505 1501 1498 1496 1493 1492 1490 1489 1489 1490 1480 1475 1471 1471 1467 1470 1473 1474 1477 1481 1480 1485 1482 1488 1496 1484 1479 1477 1477 1474 1496 1499 1497 1486 1502 1481 1487 1492 1493 1499 1499 1502 1503 1502 1507
1502 1498 1495 1493 1491 1491 1490 1488 1487 1487 1482 1463 1458 1463 1464 1466 1467 1470 1473 1476 1477 1481 1480 1488 1478 1473 1474 1475 1476 1473 1474 1479 1489 1489 1485 1477 1487 1492 1495 1493 1498 1495 1501 1500 1503
1500 1497 1494 1491 1492 1489 1488 1488 1489 1487 1489 1459 1451 1455 1462 1463 1463 1465 1466 1472 1474 1478 1475 1477 1466 1467 1469 1472 1470 1486 1461 1465 1472 1485 1505 1470 1517 1493 1487 1494 1491 1490 1493 1496 1499
1497 1495 1493 1491 1489 1488 1489 1487 1487 1487 1510 1440 1447 1446 1451 1458 1453 1459 1464 1468 1472 1471 1469 1474 1466 1465 1467 1465 1461 1474 1459 1465 1467 1478 1483 1480 1494 1493 1485 1492 1486 1484 1484 1488 1493
1496 1492 1490 1489 1487 1488 1487 1487 1487 1496 1494 1444 1442 1447 1450 1453 1455 1458 1460 1464 1466 1468 1464 1464 1455 1456 1456 1453 1455 1456 1463 1466 1468 1476 1506 1483 1488 1502 1486 1473 1475 1476 1476 1479 1487
1493 1490 1487 1487 1486 1486 1486 1486 1495 1497 1438 1443 1445 1442 1448 1452 1455 1455 1459 1465 1474 1485 1484 1466 1458 1450 1449 1455 1453 1457 1473 1514 1516 1514 1514 1478 1480 1484 1471 1462 1456 1457 1466 1472 1478
1488 1485 1484 1483 1484 1486 1486 1488 1499 1458 1447 1434 1431 1438 1448 1445 1451 1451 1456 1465 1460 1467 1476 1484 1486 1452 1441 1451 1462 1464 1474 1511 1519 1519 1504 1476 1488 1484 1462 1458 1457 1454 1456 1467 1474
1484 1482 1481 1482 1482 1486 1489 1495 1475 1456 1448 1446 1441 1443 1444 1439 1442 1447 1452 1457 1453 1456 1477 1476 1469 1442 1441 1440 1449 1461 1476 1461 1485 1477 1493 1490 1473 1456 1447 1452 1453 1456 1460 1466 1471
1483 1480 1477 1479 1483 1486 1488 1487 1468 1457 1452 1447 1460 1452 1460 1448 1446 1446 1449 1441 1443 1441 1444 1455 1475 1443 1436 1435 1440 1451 1449 1478 1481 1505 1508 1492 1475 1473 1450 1447 1455 1455 1457 1464 1470
1484 1483 1478 1480 1484 1486 1488 1476 1461 1453 1450 1449 1456 1459 1456 1453 1446 1446 1439 1430 1430 1432 1432 1440 1456 1451 1438 1445 1452 1454 1461 1459 1467 1477 1502 1500 1486 1438 1444 1439 1458 1466 1460 1463 1463
1485 1484 1478 1480 1484 1479 1477 1468 1458 1453 1449 1451 1451 1455 1457 1451 1450 1448 1444 1433 1428 1426 1430 1428 1443 1463 1451 1431 1431 1435 1447 1452 1484 1484 1470 1475 1472 1430 1425 1438 1453 1463 1462 1462 1468
1488 1482 1478 1478 1482 1475 1467 1462 1456 1448 1448 1450 1452 1450 1447 1452 1459 1446 1439 1430 1429 1430 1436 1432 1443 1466 1457 1445 1430 1438 1435 1439 1444 1451 1467 1481 1466 1424 1436 1448 1451 1453 1455 1460 1465
1493 1481 1473 1474 1470 1469 1468 1463 1456 1449 1448 1449 1451 1451 1452 1454 1447 1449 1442 1433 1432 1435 1430 1428 1438 1447 1468 1455 1438 1442 1429 1430 1441 1465 1462 1458 1446 1437 1449 1453 1459 1450 1442 1449 1460
1494 1483 1484 1476 1473 1472 1468 1465 1461 1459 1452 1451 1452 1452 1453 1459 1455 1451 1441 1436 1434 1433 1431 1432 1448 1441 1438 1433 1434 1434 1430 1428 1441 1440 1455 1442 1440 1434 1438 1444 1446 1452 1452 1447 1445
1497 1495 1490 1485 1477 1473 1468 1466 1463 1459 1458 1455 1453 1449 1451 1460 1455 1460 1452 1449 1447 1440 1443 1436 1450 1439 1445 1432 1434 1438 1432 1426 1426 1428 1431 1431 1435 1421 1427 1435 1440 1443 1444 1458 1454
1497 1498 1495 1485 1480 1476 1471 1464 1459 1455 1454 1452 1452 1452 1453 1454 1453 1451 1450 1449 1447 1448 1449 1448 1451 1451 1457 1438 1437 1449 1434 1426 1422 1422 1437 1450 1433 1422 1426 1430 1430 1445 1463 1468 1465
Wind_Speed
11 11 11 11 11 11 11 11 10 9 9 8 9 9 10 11 12 16 21 15 12 11 7 5 7 5 9 20 6 12 4 2 3 8 3 19 5 16 15 21 19 15 34 31 24
12 12 12 12 12 12 12 13 12 11 9 8 9 9 11 13 15 22 20 16 17 12 12 11 9 12 17 17 4 8 4 6 3 7 4 14 9 16 14 25 29 35 35 25 27
13 13 13 13 13 14 14 15 14 12 10 9 9 9 10 13 15 11 7 21 18 15 14 12 17 25 21 18 9 8 5 2 15 15 26 26 15 22 17 11 30 33 36 29 26
15 15 15 15 15 16 16 16 13 12 10 8 9 9 10 9 1 5 2 8 15 14 14 13 12 22 12 9 7 6 11 17 10 13 18 6 2 5 16 7 30 32 33 29 26
15 16 16 16 16 17 17 17 14 11 8 8 8 8 9 7 16 8 5 9 15 16 17 11 17 21 11 5 8 5 4 7 19 18 7 9 5 10 6 3 30 29 25 29 27
17 17 17 18 17 17 17 17 14 10 6 7 7 8 8 7 3 7 10 9 17 18 16 13 18 21 20 16 2 17 9 10 14 9 4 4 9 10 5 25 32 30 25 20 31
18 18 18 18 18 17 16 15 11 8 6 6 7 8 11 19 3 5 7 9 14 14 14 11 17 22 19 10 9 23 9 5 6 12 3 19 6 3 4 3 30 27 26 23 28
19 18 18 18 18 17 15 13 9 6 6 5 5 7 10 5 9 10 4 3 8 12 13 14 19 19 13 21 14 8 6 4 6 2 3 7 3 5 19 15 15 26 28 25 26
19 19 18 18 18 17 14 12 8 6 6 5 4 5 11 6 17 13 12 12 9 12 15 15 12 11 9 7 7 6 4 1 6 9 5 3 6 18 24 21 27 27 28 30 28
20 19 18 18 17 16 13 12 9 8 6 7 9 7 15 18 19 15 14 14 16 13 14 13 4 3 5 3 7 5 6 7 3 3 12 12 8 9 28 25 24 20 28 32 32
20 19 18 16 15 15 9 7 8 1 12 13 10 12 10 7 15 15 16 13 13 14 8 16 4 7 12 13 17 7 11 8 8 13 9 20 10 14 18 20 15 18 28 33 33
19 19 18 15 13 10 8 5 10 9 10 20 27 30 31 18 14 18 18 14 15 8 10 7 9 12 15 15 15 14 13 8 6 10 9 11 16 14 17 12 20 19 26 31 32
19 19 18 12 8 2 8 10 11 10 9 18 33 33 26 15 16 19 22 20 8 9 10 10 13 16 16 13 11 10 3 10 8 19 22 9 3 18 5 24 30 29 24 31 32
22 18 17 11 4 6 4 8 8 12 4 7 9 18 29 25 14 21 28 22 9 11 13 9 19 16 14 10 7 7 6 7 15 8 5 6 4 8 14 14 15 29 29 30 29
23 21 14 14 10 9 5 9 10 5 4 8 10 9 17 28 7 19 22 23 11 13 7 11 12 11 10 7 7 8 7 7 4 8 6 8 1 3 10 11 14 18 30 36 36
21 21 17 12 10 2 9 11 9 2 6 6 8 8 7 18 23 16 22 22 20 12 15 13 23 7 9 10 8 7 6 8 6 1 2 9 6 4 9 14 13 17 27 39 36
19 17 17 11 2 1 3 8 2 4 8 8 6 11 10 9 12 11 13 11 6 4 9 14 12 10 10 5 7 5 1 4 4 4 6 6 4 8 8 8 15 17 26 41 40
20 15 9 8 9 4 6 3 4 10 9 12 2 12 10 10 12 15 11 8 9 10 10 8 9 16 12 10 9 7 9 6 6 5 5 5 4 7 9 27 26 24 34 34 40
20 11 4 4 2 7 6 4 5 2 16 8 11 4 5 10 9 12 11 12 12 12 11 5 13 13 11 10 11 9 5 11 6 7 1 4 5 6 2 8 21 24 14 16 35
22 15 9 6 4 5 3 5 7 14 16 9 7 7 9 12 5 12 10 14 15 16 16 10 9 14 11 12 9 9 7 3 3 5 5 5 3 5 4 9 3 8 19 21 24
15 7 10 13 12 8 4 6 12 25 17 2 6 9 12 14 14 13 11 15 19 16 16 15 9 14 7 4 9 3 6 4 2 4 6 5 5 7 13 16 10 10 23 27 32
5 3 14 10 7 7 7 7 11 21 13 7 4 7 10 15 13 12 12 8 25 11 14 11 8 7 11 11 7 9 11 9 5 10 4 5 6 7 11 10 28 22 19 23 16
17 7 13 13 3 6 13 15 19 18 4 6 8 10 7 9 9 8 14 19 20 6 3 5 2 2 6 8 10 7 9 8 5 5 9 2 5 2 21 18 28 34 30 35 32
7 4 8 16 18 10 11 10 14 18 11 6 7 11 8 9 10 8 10 9 20 8 4 9 4 4 7 8 3 7 7 9 7 3 6 6 4 6 14 14 10 17 36 30 38
3 4 13 4 8 15 13 12 13 13 19 18 2 8 8 6 10 11 11 14 13 17 9 2 3 6 8 10 9 13 9 12 7 7 4 5 4 4 12 14 20 19 18 27 33
7 9 15 16 17 12 11 9 14 14 12 14 10 8 8 6 3 7 13 7 4 10 10 9 6 6 7 13 11 15 15 15 10 7 9 14 4 6 12 26 28 40 37 29 24
9 17 10 10 10 9 10 13 17 15 11 13 12 6 6 8 14 17 16 20 11 7 7 5 6 4 7 9 11 10 9 9 6 6 5 5 8 6 4 14 30 24 17 15 9
Wind_Direction
18 13 9 5 359 353 345 336 326 313 305 301 299 295 290 282 270 262 248 235 241 249 263 246 276 257 266 263 253 81 356 333 188 183 195 265 253 97 121 139 133 122 135 141 146
14 11 7 4 358 351 344 335 326 316 303 293 290 293 297 292 282 259 246 232 226 247 245 235 226 244 241 252 169 118 184 238 223 162 72 306 318 145 113 103 103 115 131 141 141
6 3 0 358 353 347 342 334 324 315 304 293 288 289 296 304 307 281 257 217 215 238 250 239 265 281 253 256 158 158 197 221 174 137 140 229 310 110 93 121 134 137 143 151 152
357 353 351 350 347 344 340 336 325 314 304 289 282 285 291 296 275 300 286 201 213 236 237 236 265 273 270 256 165 118 305 127 247 158 163 203 157 103 123 153 145 146 152 158 164
347 344 341 340 340 339 338 336 327 315 301 285 278 278 287 269 253 270 299 217 213 224 217 218 260 266 262 259 117 115 120 346 211 166 215 157 154 149 143 119 148 147 158 172 172
336 336 334 332 332 332 335 336 328 320 303 282 272 270 269 255 265 254 280 212 211 211 210 228 254 260 273 306 218 121 44 336 350 59 138 143 187 98 340 136 145 152 165 175 175
329 329 327 325 325 327 330 333 325 311 300 289 273 264 252 232 228 289 259 203 204 210 207 224 256 276 295 303 264 133 116 299 47 16 350 345 56 10 278 204 150 162 176 179 166
328 327 324 323 320 321 325 326 318 294 290 282 270 264 255 221 223 230 268 223 194 201 234 246 275 287 297 300 304 105 73 11 6 354 242 325 220 195 231 244 246 177 179 171 160
330 329 326 323 319 318 320 312 300 272 268 254 261 274 266 234 201 206 220 212 215 225 231 261 294 311 280 285 307 56 87 89 302 154 127 195 246 214 206 226 241 182 178 169 174
326 324 324 323 320 316 316 306 289 256 250 255 216 284 233 218 208 209 212 218 210 218 236 238 271 246 289 271 252 154 146 230 120 259 186 224 230 235 215 219 211 183 162 165 172
327 324 322 320 319 313 313 320 342 176 217 222 221 228 280 204 195 201 200 213 224 205 221 230 189 228 222 236 245 234 150 160 222 251 207 243 204 219 205 223 199 199 162 169 172
328 326 323 320 314 304 306 299 353 322 289 267 261 250 259 256 180 206 191 207 226 215 224 258 220 232 244 248 251 263 159 196 225 262 228 258 201 196 184 209 196 203 182 170 176
333 329 326 322 318 283 304 300 335 323 288 279 237 231 236 243 190 200 188 208 221 227 229 215 247 221 240 259 270 270 261 132 152 229 222 263 18 175 183 159 218 199 192 182 182
336 332 329 328 278 272 287 4 319 320 297 269 187 224 228 238 218 221 195 196 235 219 223 230 244 254 236 232 250 275 237 237 160 159 226 223 227 210 173 181 222 196 195 189 192
330 327 328 316 288 279 332 353 332 304 299 163 139 210 191 206 234 217 208 193 218 248 220 240 247 256 264 266 222 247 284 288 254 187 180 270 167 292 148 206 208 202 193 199 201
325 320 317 305 277 345 354 332 309 253 247 152 146 168 185 195 230 247 200 193 216 254 275 267 262 265 225 238 241 266 316 303 304 209 196 230 198 204 193 205 193 212 211 199 202
324 313 300 275 202 50 312 312 248 238 325 149 176 162 188 189 216 233 207 190 189 231 259 279 273 269 274 271 296 192 221 318 324 331 239 14 25 14 259 225 201 201 199 198 195
330 313 293 272 227 231 337 307 253 280 304 352 70 161 179 183 196 222 225 198 201 220 271 234 275 235 222 196 201 243 174 172 226 225 237 344 156 197 216 235 248 206 215 196 189
334 323 273 148 190 157 268 236 239 238 347 1 343 296 262 183 183 199 219 194 210 194 225 277 280 297 285 207 161 251 248 217 240 264 277 220 284 288 301 209 230 228 157 172 181
335 332 266 191 148 149 230 254 289 315 294 326 340 335 322 314 243 187 205 204 219 212 202 234 263 276 298 182 199 176 237 278 298 240 262 232 240 228 217 175 263 146 152 165 179
335 318 126 160 164 202 230 243 279 289 316 11 351 312 307 308 317 316 223 223 214 216 214 212 202 269 313 218 191 215 252 263 210 178 202 255 246 218 191 207 118 83 124 168 204
12 274 186 171 197 225 228 243 251 279 324 331 170 259 280 295 307 317 323 324 344 353 212 209 193 221 235 268 223 197 196 202 155 282 247 196 269 319 196 120 124 115 130 143 171
336 267 213 190 247 248 267 289 298 281 267 309 292 296 290 290 304 303 313 316 323 33 360 330 285 218 303 319 307 209 225 206 214 212 251 223 271 175 108 115 132 131 142 132 146
326 294 222 198 239 257 279 286 298 319 322 217 316 319 316 320 310 298 297 291 317 338 21 1 302 169 208 216 265 317 208 211 220 221 251 238 167 118 114 134 161 169 165 179 177
277 310 8 314 339 334 327 325 320 325 322 323 303 289 273 285 299 299 297 312 311 327 326 148 262 309 298 292 310 309 270 261 248 237 223 241 126 192 141 163 169 146 154 175 160
315 2 338 304 318 321 304 284 277 282 276 290 297 243 306 340 3 340 353 355 328 347 345 337 296 275 284 295 298 302 293 261 261 303 331 293 187 173 142 154 148 166 173 195 183
353 350 336 295 305 300 289 302 311 301 329 310 341 343 291 291 4 340 330 315 307 315 321 310 336 5 271 272 295 273 273 289 254 252 89 347 276 148 133 150 164 149 72 122 83